[[{"header":{"parameterUnit":"m.s-1","parameterCategory":1,"la1":30.2991,"la2":30.254,"lo1":-89.0895,"lo2":-89.0444,"dy":0.0017,"dx":0.0017,"nx":28,"ny":28,"refTime":"2025-05-22T09:00:00:Z","depth":0,"parameterNumber":2,"parameterNumberName":"U-component_of_WINDS"},"data":[0,0,0,0,0,0,0,0,0,0,0,0,0,0,0,0,0,0,0,0,0,0,0,0,0,0,0,0,0,0,0,0,0,0,0,0,0,0,0,0,0,0,0,0,0,0,0,0,0,0,0,0,0,0,0,0,0,0,0.1175,0.1175,0,0.1177,0.1177,0.1177,0.1184,0.1184,0.1184,0.1184,0.1187,0.1187,0.1187,0,0,0,0,0,0,0,0,0,0,0,0,0,0.118,0.118,0.1175,0.1175,0.1175,0.1177,0.1177,0.1177,0.1184,0.1184,0.1184,0.1184,0.1187,0.1187,0.1187,0,0,0,0,0,0,0,0,0,0,0,0,0,0.1179,0.118,0.1175,0.1178,0.1179,0.1177,0.1177,0.1177,0.1184,0.1184,0.1184,0.1184,0.1187,0.1187,0.1187,0.1182,0,0,0.1187,0.1187,0,0,0,0,0,0,0,0,0.1179,0.1179,0.1178,0.1178,0.1178,0.118,0.118,0.1178,0.1183,0.1182,0.1184,0.1184,0.1185,0.1185,0.1185,0.1182,0.1182,0.1187,0.1187,0.1187,0.1187,0,0,0,0,0,0,0,0.1179,0.1179,0.1175,0.1178,0.1178,0.1181,0.1181,0.1179,0.1182,0.1182,0.1182,0.1183,0.1185,0.1185,0.1185,0.1182,0.1187,0.1187,0.1187,0.1187,0.1178,0.1178,0,0,0,0,0,0,0.1179,0.1179,0.1175,0.1175,0.1179,0.1181,0.1181,0.1179,0.1182,0.1183,0.1182,0.1183,0.1185,0.1185,0.1185,0.118,0.1187,0.1187,0.1187,0.1178,0.1178,0.1178,0,0,0,0,0,0,0.1179,0.1178,0.1175,0.1177,0.1177,0.118,0.1179,0.1179,0.1179,0.1182,0.1183,0.1181,0.1185,0.1185,0.1183,0.118,0.1187,0.1187,0.1178,0.1178,0.1178,0.117,0,0,0,0,0,0,0.1179,0.1178,0.1175,0.1177,0.1177,0.1172,0.1178,0.1179,0.1179,0.1179,0.1182,0.1182,0.1185,0.1183,0.1183,0.118,0.1187,0.1178,0.1178,0.1178,0.117,0.1169,0.1168,0,0,0,0,0,0.1179,0.1173,0.1175,0.1175,0.1173,0.1172,0.1172,0.1175,0.1178,0.1176,0.1179,0.1182,0.1181,0.1183,0.1183,0.118,0.1179,0.1178,0.1178,0.1171,0.1169,0.1168,0,0,0,0,0,0,0.117,0.1173,0.1176,0.117,0.1171,0.1173,0.117,0.1174,0.1174,0.1174,0.1179,0.118,0.1177,0.1179,0.1181,0.1176,0.1181,0.118,0.1175,0.1174,0.1173,0.1173,0.1186,0,0,0,0,0,0.1168,0.1165,0.1168,0.1163,0.1163,0.1167,0.1166,0.1169,0.117,0.1171,0.1173,0.1174,0.1175,0.1175,0.1175,0.1171,0.1172,0.1169,0.1169,0.1168,0.1167,0.1167,0.1166,0.1176,0.1176,0.1176,0,0,0.1162,0.1163,0.1162,0.1161,0.1162,0.1161,0.1167,0.1165,0.1164,0.117,0.1169,0.1171,0.1173,0.117,0.1169,0.1172,0.1165,0.1167,0.1167,0.1166,0.1167,0.1166,0.1165,0.1176,0.1176,0.1176,0,0,0.1151,0.1152,0.1148,0.1149,0.1151,0.1154,0.1153,0.1156,0.1157,0.1155,0.1161,0.1161,0.116,0.1162,0.1163,0.1156,0.116,0.1157,0.1151,0.1151,0.115,0.115,0.1148,0.1147,0.1156,0.1156,0.1156,0,0.1144,0.1141,0.1146,0.1144,0.1144,0.115,0.1147,0.1149,0.115,0.1151,0.1154,0.1155,0.1157,0.1156,0.1154,0.1154,0.1155,0.1156,0.115,0.1149,0.1149,0.1147,0.1147,0.1156,0.1156,0.1156,0.1156,0,0.1133,0.1132,0.1129,0.1131,0.1131,0.1128,0.1133,0.1133,0.1137,0.114,0.1139,0.1142,0.1144,0.1144,0.1147,0.1144,0.1146,0.1149,0.1153,0.1147,0.1146,0.1146,0.1155,0.1155,0.1155,0.1155,0,0,0.1115,0.1121,0.112,0.1121,0.1125,0.1124,0.1123,0.1125,0.1125,0.1127,0.1127,0.1128,0.1132,0.1133,0.1137,0.1137,0.1133,0.1141,0.1141,0.114,0.1131,0.1128,0.1128,0.1136,0.1136,0.1136,0.1131,0,0.1105,0.1103,0.1108,0.1104,0.1104,0.1111,0.111,0.1113,0.1117,0.1118,0.1122,0.1123,0.1127,0.1129,0.1129,0.1133,0.1131,0.1134,0.1137,0.1137,0.1135,0.1127,0.1123,0.1119,0.1131,0.1131,0.1131,0,0.1093,0.1094,0.1091,0.1097,0.1097,0.1096,0.1099,0.11,0.1104,0.1107,0.1109,0.1114,0.1115,0.112,0.1122,0.1123,0.1125,0.1128,0.1128,0.1128,0.1133,0.1127,0.1117,0.1117,0.113,0.113,0.113,0,0.108,0.1082,0.1081,0.1082,0.1088,0.1088,0.1091,0.1095,0.1097,0.11,0.1101,0.1105,0.1106,0.111,0.1116,0.1119,0.1118,0.1123,0.1121,0.1121,0.112,0.112,0.1111,0.1121,0.1121,0.1121,0.1121,0,0.1069,0.1066,0.1075,0.1074,0.1073,0.108,0.1079,0.1082,0.1087,0.1088,0.1095,0.1096,0.1104,0.1107,0.1112,0.1114,0.1114,0.1117,0.1119,0.1117,0.1116,0.1118,0.1118,0.1121,0.1121,0.1121,0.1121,0,0.1054,0.106,0.1059,0.1066,0.1068,0.1066,0.1073,0.1073,0.1078,0.1079,0.108,0.1088,0.1091,0.1098,0.1104,0.1107,0.1108,0.111,0.1106,0.1107,0.1105,0.1106,0.1097,0.1096,0.1107,0.1107,0.1107,0,0.1046,0.1044,0.1052,0.1053,0.1055,0.1057,0.1059,0.1066,0.1068,0.1074,0.1074,0.1079,0.1082,0.1088,0.1095,0.1099,0.1102,0.1099,0.1103,0.1101,0.1103,0.1103,0.1103,0.1098,0.1097,0.1097,0.1097,0,0.1031,0.1035,0.1037,0.1041,0.1043,0.1046,0.105,0.1051,0.1059,0.1062,0.1065,0.1068,0.1075,0.1079,0.1085,0.109,0.1095,0.1096,0.1096,0.1094,0.1092,0.1093,0.1104,0.1096,0.1096,0.1096,0.1096,0.1096,0.102,0.102,0.1025,0.1028,0.1032,0.1036,0.1037,0.1042,0.1046,0.1051,0.1056,0.1059,0.1066,0.1075,0.108,0.1084,0.1086,0.1086,0.1086,0.1086,0.1085,0.1091,0.1085,0.1085,0.1085,0.1085,0.1085,0,0.1006,0.101,0.1013,0.1018,0.1021,0.1027,0.1032,0.1034,0.1037,0.1043,0.1047,0.1052,0.1057,0.1065,0.1071,0.1073,0.1076,0.1075,0.1074,0.1076,0.1082,0.1082,0.1072,0.1072,0.1072,0.1072,0.1072,0.1072,0.0999,0.0999,0.1004,0.1007,0.1012,0.1016,0.1018,0.1023,0.1027,0.1033,0.1037,0.1043,0.105,0.1057,0.1063,0.1065,0.1067,0.1065,0.1068,0.1074,0.1075,0.1076,0.1076,0.1065,0.1065,0.1062,0.1062,0.1062]},{"header":{"parameterUnit":"m.s-1","parameterCategory":1,"la1":30.2991,"la2":30.254,"lo1":-89.0895,"lo2":-89.0444,"dy":0.0017,"dx":0.0017,"nx":28,"ny":28,"refTime":"2025-05-22T09:00:00:Z","depth":0,"parameterNumber":3,"parameterNumberName":"V-component_of_WINDS"},"data":[0,0,0,0,0,0,0,0,0,0,0,0,0,0,0,0,0,0,0,0,0,0,0,0,0,0,0,0,0,0,0,0,0,0,0,0,0,0,0,0,0,0,0,0,0,0,0,0,0,0,0,0,0,0,0,0,0,0,-1.794,-1.7941,0,-1.7967,-1.7968,-1.7968,-1.7964,-1.7964,-1.7963,-1.7963,-1.799,-1.7991,-1.7992,0,0,0,0,0,0,0,0,0,0,0,0,0,-1.7886,-1.7887,-1.794,-1.7941,-1.7941,-1.7967,-1.7968,-1.7968,-1.7964,-1.7964,-1.7963,-1.7963,-1.799,-1.7991,-1.7992,0,0,0,0,0,0,0,0,0,0,0,0,0,-1.7911,-1.7887,-1.794,-1.7942,-1.7943,-1.7967,-1.7968,-1.7968,-1.7965,-1.7964,-1.7963,-1.7963,-1.7989,-1.7991,-1.7993,-1.8016,0,0,-1.7998,-1.7999,0,0,0,0,0,0,0,0,-1.7909,-1.7913,-1.7942,-1.7942,-1.7943,-1.7962,-1.7958,-1.7984,-1.7965,-1.7956,-1.7963,-1.7962,-1.7981,-1.7983,-1.799,-1.8018,-1.8019,-1.7998,-1.7999,-1.8,-1.8,0,0,0,0,0,0,0,-1.7908,-1.7912,-1.7951,-1.7942,-1.7943,-1.7942,-1.7945,-1.7963,-1.7972,-1.7957,-1.7957,-1.796,-1.7981,-1.7988,-1.7991,-1.8019,-1.7998,-1.7999,-1.8,-1.8001,-1.807,-1.8071,0,0,0,0,0,0,-1.7905,-1.791,-1.795,-1.7952,-1.7924,-1.7944,-1.7947,-1.7956,-1.7972,-1.7974,-1.7961,-1.796,-1.7986,-1.7989,-1.7992,-1.8021,-1.8,-1.8001,-1.8002,-1.8069,-1.807,-1.8071,0,0,0,0,0,0,-1.7904,-1.7909,-1.7949,-1.7931,-1.7936,-1.7945,-1.7956,-1.7957,-1.7964,-1.7975,-1.7976,-1.7966,-1.7985,-1.7989,-1.8011,-1.8022,-1.8002,-1.8004,-1.8068,-1.8069,-1.807,-1.8081,0,0,0,0,0,0,-1.7903,-1.7909,-1.7917,-1.7931,-1.7937,-1.7967,-1.7957,-1.7958,-1.7967,-1.7967,-1.798,-1.7982,-1.7985,-1.8008,-1.8012,-1.8024,-1.8005,-1.8067,-1.8069,-1.807,-1.8079,-1.8082,-1.8084,0,0,0,0,0,-1.7901,-1.7919,-1.7918,-1.7923,-1.7948,-1.7968,-1.7971,-1.7975,-1.7968,-1.7977,-1.7985,-1.7981,-1.8021,-1.801,-1.8015,-1.8028,-1.8066,-1.8068,-1.807,-1.8078,-1.8082,-1.8084,0,0,0,0,0,0,-1.7905,-1.792,-1.792,-1.7943,-1.7954,-1.7967,-1.7979,-1.7978,-1.7992,-1.799,-1.7994,-1.7997,-1.8019,-1.8026,-1.8014,-1.8052,-1.8043,-1.8045,-1.8047,-1.805,-1.8053,-1.8051,-1.8006,0,0,0,0,0,-1.7909,-1.7924,-1.7936,-1.7955,-1.7961,-1.7969,-1.7978,-1.798,-1.7992,-1.7997,-1.8005,-1.8017,-1.8032,-1.8042,-1.8056,-1.8081,-1.8084,-1.8092,-1.8094,-1.8096,-1.8099,-1.8113,-1.8117,-1.8077,-1.8077,-1.8077,0,0,-1.7916,-1.7927,-1.7936,-1.7957,-1.7966,-1.7981,-1.7973,-1.799,-1.8002,-1.7999,-1.802,-1.8027,-1.8041,-1.8064,-1.8075,-1.807,-1.8111,-1.8099,-1.81,-1.8101,-1.8115,-1.8119,-1.8123,-1.8078,-1.8078,-1.8078,0,0,-1.7938,-1.7947,-1.7965,-1.7975,-1.7989,-1.7995,-1.7999,-1.8013,-1.8018,-1.8039,-1.8038,-1.8053,-1.8078,-1.8088,-1.8096,-1.8125,-1.8123,-1.8129,-1.8142,-1.8157,-1.816,-1.8163,-1.8173,-1.8177,-1.8132,-1.8132,-1.8132,0,-1.7945,-1.7969,-1.7974,-1.7991,-1.8,-1.8,-1.8018,-1.8028,-1.8046,-1.8053,-1.8048,-1.8081,-1.809,-1.8116,-1.8123,-1.813,-1.8136,-1.8127,-1.8159,-1.8162,-1.8165,-1.8175,-1.8179,-1.8132,-1.8132,-1.8132,-1.8132,0,-1.7978,-1.7994,-1.8007,-1.8025,-1.8036,-1.8054,-1.8062,-1.8073,-1.8074,-1.8081,-1.8103,-1.8115,-1.8132,-1.8138,-1.814,-1.8166,-1.8162,-1.8158,-1.8148,-1.8169,-1.8179,-1.8182,-1.8133,-1.8133,-1.8133,-1.8133,0,0,-1.8001,-1.8024,-1.8028,-1.8037,-1.8054,-1.8067,-1.8086,-1.8103,-1.8113,-1.8126,-1.8141,-1.8164,-1.8161,-1.8171,-1.8174,-1.8186,-1.8209,-1.818,-1.8181,-1.8185,-1.8239,-1.8242,-1.8246,-1.8208,-1.8209,-1.8209,-1.8238,0,-1.8024,-1.8056,-1.8062,-1.8091,-1.8106,-1.8108,-1.8124,-1.8136,-1.8143,-1.8158,-1.8166,-1.8182,-1.8176,-1.8182,-1.8195,-1.8203,-1.8219,-1.8201,-1.8223,-1.8223,-1.8219,-1.8251,-1.8253,-1.8279,-1.8241,-1.8242,-1.8242,0,-1.8055,-1.807,-1.8101,-1.8117,-1.8124,-1.8138,-1.8156,-1.817,-1.8185,-1.8189,-1.8201,-1.8203,-1.8223,-1.8213,-1.824,-1.8228,-1.8237,-1.8243,-1.8244,-1.8245,-1.8234,-1.8253,-1.8288,-1.8292,-1.8248,-1.8248,-1.8247,0,-1.8069,-1.8098,-1.812,-1.8127,-1.8147,-1.8157,-1.8166,-1.818,-1.8191,-1.8207,-1.8214,-1.8231,-1.8241,-1.8254,-1.8261,-1.8253,-1.8288,-1.8279,-1.8293,-1.8292,-1.8299,-1.8298,-1.8335,-1.8306,-1.8306,-1.8306,-1.8306,0,-1.8095,-1.8113,-1.8126,-1.814,-1.8161,-1.8168,-1.8189,-1.8198,-1.8211,-1.8226,-1.8229,-1.8243,-1.8251,-1.8267,-1.8273,-1.8295,-1.8299,-1.8304,-1.8305,-1.8303,-1.8303,-1.8309,-1.8307,-1.8307,-1.8306,-1.8306,-1.8306,0,-1.8113,-1.8123,-1.8147,-1.8165,-1.817,-1.8185,-1.82,-1.8213,-1.8221,-1.8241,-1.8246,-1.8258,-1.8278,-1.8286,-1.8309,-1.8313,-1.8339,-1.8339,-1.8334,-1.8334,-1.8348,-1.8346,-1.8389,-1.8396,-1.8362,-1.8362,-1.8363,0,-1.8128,-1.8143,-1.8163,-1.8174,-1.8183,-1.82,-1.8212,-1.822,-1.8232,-1.8252,-1.8263,-1.8282,-1.8298,-1.8329,-1.834,-1.8358,-1.8358,-1.8372,-1.8361,-1.8359,-1.8359,-1.8357,-1.8359,-1.8374,-1.8374,-1.8375,-1.8375,0,-1.8155,-1.8159,-1.8176,-1.8195,-1.8209,-1.8224,-1.8239,-1.8248,-1.8258,-1.8272,-1.8292,-1.8304,-1.8329,-1.8349,-1.8368,-1.8377,-1.8378,-1.8379,-1.8383,-1.8381,-1.8378,-1.838,-1.8339,-1.8377,-1.8377,-1.8377,-1.8377,-1.8377,-1.8172,-1.8185,-1.8202,-1.8221,-1.8233,-1.8248,-1.8262,-1.8272,-1.8289,-1.831,-1.8314,-1.8336,-1.8352,-1.8378,-1.8389,-1.8406,-1.8402,-1.8408,-1.841,-1.8411,-1.8412,-1.8376,-1.8409,-1.8409,-1.8409,-1.8409,-1.8409,0,-1.8198,-1.8209,-1.8227,-1.8248,-1.8264,-1.8264,-1.8281,-1.8294,-1.8313,-1.8328,-1.8345,-1.8368,-1.8388,-1.8401,-1.8421,-1.8432,-1.8433,-1.8437,-1.8436,-1.8438,-1.8414,-1.8408,-1.8436,-1.8436,-1.8436,-1.8436,-1.8436,-1.8436,-1.8213,-1.8237,-1.8244,-1.8273,-1.8285,-1.8306,-1.8316,-1.833,-1.8342,-1.8369,-1.8385,-1.8394,-1.8409,-1.843,-1.8448,-1.8452,-1.8459,-1.8463,-1.8466,-1.8443,-1.844,-1.8437,-1.8432,-1.8465,-1.8465,-1.849,-1.849,-1.849]}]]